sat.trackr.live / text

‹ back to catalog

STARLINK-34826

NORAD 65360 · 2025-190K

PAYLOAD ACTIVE UNKNOWN

§ Identity

Operator
Country
US
Launch date
2025-08-28
Launch site
AFETR
Launch vehicle
Mass (kg)
RCS (m²)

Purposes: comms

External: N2YO · Heavens-Above · Gunter

§ Orbital elements

Epoch: 2026-09-20T13:18:11.978784Z

Period
93.85 min
Inclination
53.1599°
Eccentricity
0.0001022
Mean motion
15.34410933 rev/d
Perigee alt
462.0 km
Apogee alt
463.4 km
Semi-major
6,840.8 km
B*
6.1577e-4
RAAN
339.2387°
Arg perigee
90.6573°
Mean anomaly
269.4547°
Rev number
5,917

§ Raw data

STARLINK-348261 65360U 25190K   26263.55430531  .00020492  00000+0  61577-3 0  99972 65360  53.1599 339.2387 0001022  90.6573 269.4547 15.34410933 59176

JSON: /api/v1/satellites/65360 · /tle

For live sub-satellite position, see the globe view (requires WebGL).

§ Visibility from observer

Set your observer location to see the next 7 days of passes ≥ 10°. The values pass through the URL so the page stays shareable.

No JS? Fill the form by hand. The geolocation button needs JavaScript.